Torna al catalogo

STARLINK-5407

AttivoComunicazioniVLEO
NORAD 54858·PAYLOAD·🇺🇸 United States

Lanciato Dec 28, 2022 da Cape Canaveral Space Force Station

Loading…

Prossimi Passaggi (prossime 24 ore)

TLE

AggiornatoSource: CelesTrak SupGP

Epoca: Sep 14, 2026, 21:49 UTC

1 54858C 22177AQ  26257.90951389 -.00017853  00000+0 -64680-3 0  2574
2 54858  43.0008 132.7924 0001319 268.2972  11.7777 15.27578927    19

Traccia STARLINK-5407 in tempo reale con AllMySat

Download on the App Store